Change the Weather History Date:

Thursday, October 25, 2012

  Actual Average Record
Temperature  
Mean Temperature 50 °F -  
Max Temperature 54 °F 50 °F 62 °F (2013)
Min Temperature 46 °F 41 °F 39 °F (2003)
Degree Days  
Heating Degree Days 15    
Moisture  
Dew Point 46 °F    
Average Humidity 83    
Maximum Humidity 100    
Minimum Humidity 63    
Precipitation  
Precipitation 0.00 in 0.12 in - ()
Sea Level Pressure  
Sea Level Pressure 30.03 in    
Wind  
Wind Speed 6 mph ()    
Max Wind Speed 14 mph    
Max Gust Speed 24 mph    
Visibility 6.4 miles    
Events Rain    
Averages and records for this station are not official NWS values.
T = Trace of Precipitation, MM = Missing Value Source: Averaged Metar Reports

Daily Weather History Graph

Daily Weather History Graph

Search for Another Location

Airport or City:

Trip Planner

Search our weather history database for the weather conditions in past years. The results will help you decide how hot, cold, wet, or windy it might be!

Date:

Astronomy

Oct. 25, 2012 Rise Set
Actual Time 8:25 AM CEST 6:23 PM CEST
Civil Twilight 7:50 AM CEST 6:58 PM CEST
Nautical Twilight 7:09 AM CEST 7:39 PM CEST
Astronomical Twilight 6:29 AM CEST 8:18 PM CEST
Moon 4:28 PM CEST (10/25) 3:34 AM CEST (10/25)
Length of Visible Light 11h 08m
Length of Day
9h 57m
Waxing Gibbous, 82% of the Moon is Illuminated
Oct 25
Waxing Gibbous
Oct 29
Full
Nov 7
Last Quarter
Nov 13
New
Nov 20
First Quarter

Hourly Weather History & Observations

Time (CEST) Temp. Windchill Dew Point Humidity Pressure Visibility Wind Dir Wind Speed Gust Speed Precip Events Conditions
12:25 AM 53.6 °F - 51.8 °F 94% 30.09 in 4.3 mi ENE 5.8 mph - N/A   Overcast
12:55 AM 53.6 °F - 51.8 °F 94% 30.09 in 4.3 mi NE 5.8 mph - N/A   Overcast
1:11 AM 53.6 °F - 51.8 °F 94% 30.09 in 5.0 mi NE 6.9 mph - N/A   Overcast
1:15 AM 53.6 °F - 51.8 °F 94% 30.09 in 5.0 mi NE 6.9 mph - N/A   Overcast
1:25 AM 53.6 °F - 51.8 °F 94% 30.09 in 5.6 mi NE 8.1 mph - N/A   Overcast
1:55 AM 53.6 °F - 50.0 °F 88% 30.09 in 6.2 mi ENE 4.6 mph - N/A   Overcast
2:00 AM 53 °F - 51 °F 90% 30.10 in 6 mi East 4.5 mph - -   Partly Cloudy
2:02 AM 53.6 °F - 51.8 °F 94% 30.09 in 6.2 mi East 4.6 mph - N/A   Overcast
2:06 AM 53.6 °F - 51.8 °F 94% 30.09 in 5.6 mi East 4.6 mph - N/A   Overcast
2:25 AM 53.6 °F - 50.0 °F 88% 30.09 in 6.2 mi East 4.6 mph - N/A   Overcast
2:55 AM 53.6 °F - 50.0 °F 88% 30.09 in 6.2 mi NE 2.3 mph - N/A   Overcast
3:25 AM 53.6 °F - 51.8 °F 94% 30.06 in 6.2 mi NNE 1.2 mph - N/A   Overcast
3:55 AM 53.6 °F - 51.8 °F 94% 30.06 in 6.2 mi North 3.5 mph - N/A   Overcast
4:05 AM 53.6 °F - 51.8 °F 94% 30.06 in 6.2 mi North 2.3 mph - N/A   Overcast
4:09 AM 53.6 °F - 51.8 °F 94% 30.06 in 3.7 mi North 2.3 mph - N/A   Overcast
4:15 AM 53.6 °F - 51.8 °F 94% 30.06 in - North 2.3 mph - N/A   Overcast
4:25 AM 51.8 °F - 51.8 °F 100% 30.06 in - North 3.5 mph - N/A   Overcast
4:55 AM 51.8 °F - 51.8 °F 100% 30.06 in 3.1 mi North 3.5 mph - N/A   Overcast
5:00 AM 53 °F - 52 °F 93% 30.06 in 5 mi NNW 2.2 mph - -   Mist
5:06 AM 51.8 °F - 51.8 °F 100% 30.06 in 5.6 mi NNW 3.5 mph - N/A   Overcast
5:25 AM 51.8 °F - 51.8 °F 100% 30.04 in 6.2 mi North 4.6 mph - N/A   Overcast
5:40 AM 51.8 °F - 51.8 °F 100% 30.04 in 4.3 mi North 6.9 mph - N/A   Overcast
5:55 AM 51.8 °F - 50.0 °F 94% 30.04 in 6.2 mi North 6.9 mph - N/A   Overcast
6:03 AM 51.8 °F - 50.0 °F 94% 30.04 in 6.2 mi North 6.9 mph - N/A   Overcast
6:07 AM 51.8 °F - 50.0 °F 94% 30.04 in 6.2 mi North 6.9 mph - N/A   Overcast
6:11 AM 51.8 °F - 50.0 °F 94% 30.04 in 6.2 mi North 8.1 mph - N/A   Overcast
6:25 AM 51.8 °F - 50.0 °F 94% 30.04 in 6.2 mi North 6.9 mph - N/A   Overcast
6:27 AM 51.8 °F - 50.0 °F 94% 30.04 in 6.2 mi North 6.9 mph - N/A   Mostly Cloudy
6:31 AM 51.8 °F - 50.0 °F 94% 30.04 in 6.2 mi North 8.1 mph - N/A   Mostly Cloudy
6:35 AM 51.8 °F - 50.0 °F 94% 30.04 in 5.0 mi North 8.1 mph - N/A   Mostly Cloudy
6:55 AM 51.8 °F - 50.0 °F 94% 30.04 in 6.2 mi North 6.9 mph - N/A   Mostly Cloudy
6:58 AM 51.8 °F - 50.0 °F 94% 30.04 in 6.2 mi North 6.9 mph - N/A   Overcast
7:03 AM 51.8 °F - 50.0 °F 94% 30.04 in 6.2 mi North 6.9 mph - N/A   Overcast
7:07 AM 51.8 °F - 50.0 °F 94% 30.04 in 6.2 mi North 6.9 mph - N/A   Mostly Cloudy
7:25 AM 51.8 °F - 48.2 °F 88% 30.04 in 6.2 mi North 8.1 mph - N/A   Overcast
7:28 AM 51.8 °F - 50.0 °F 94% 30.04 in 6.2 mi North 8.1 mph - N/A   Mostly Cloudy
7:32 AM 50.0 °F - 50.0 °F 100% 30.04 in 6.2 mi North 8.1 mph - N/A   Overcast
7:38 AM 50.0 °F - 50.0 °F 100% 30.04 in 6.2 mi North 6.9 mph - N/A   Overcast
7:46 AM 51.8 °F - 50.0 °F 94% 30.04 in 6.2 mi North 5.8 mph - N/A   Overcast
7:55 AM 51.8 °F - 48.2 °F 88% 30.04 in 6.2 mi North 5.8 mph - N/A   Overcast
8:00 AM 51 °F - 49 °F 88% 30.05 in 25 mi North 4.5 mph - -   Partly Cloudy
8:25 AM 51.8 °F - 48.2 °F 88% 30.04 in 6.2 mi North 6.9 mph - N/A   Overcast
8:39 AM 51.8 °F - 46.4 °F 82% 30.04 in 6.2 mi North 8.1 mph - N/A   Overcast
8:55 AM 51.8 °F - 44.6 °F 76% 30.04 in 6.2 mi North 6.9 mph - N/A   Overcast
8:56 AM 51.8 °F - 44.6 °F 76% 30.04 in 6.2 mi North 5.8 mph - N/A   Overcast
9:08 AM 51.8 °F - 44.6 °F 76% 30.04 in 6.2 mi North 4.6 mph - N/A   Overcast
9:25 AM 51.8 °F - 44.6 °F 76% 30.04 in 6.2 mi North 3.5 mph - N/A   Overcast
9:55 AM 51.8 °F - 44.6 °F 76% 30.04 in 6.2 mi North 5.8 mph - N/A   Overcast
10:25 AM 51.8 °F - 44.6 °F 76% 30.04 in 6.2 mi NNW 5.8 mph - N/A   Overcast
10:55 AM 53.6 °F - 44.6 °F 72% 30.04 in 6.2 mi North 6.9 mph - N/A   Overcast
10:57 AM 53.6 °F - 44.6 °F 72% 30.04 in 6.2 mi North 6.9 mph - N/A   Overcast
10:59 AM 53.6 °F - 46.4 °F 77% 30.04 in 6.2 mi NNW 8.1 mph - N/A   Overcast
11:00 AM 53 °F - 45 °F 67% 30.05 in 25 mi NNW 6.7 mph - -   Overcast
11:03 AM 53.6 °F - 44.6 °F 72% 30.04 in 6.2 mi NNW 8.1 mph - N/A   Overcast
11:07 AM 53.6 °F - 46.4 °F 77% 30.04 in 6.2 mi NNW 6.9 mph - N/A   Overcast
11:24 AM 53.6 °F - 44.6 °F 72% 30.04 in 6.2 mi NNW 8.1 mph - N/A   Overcast
11:25 AM 53.6 °F - 44.6 °F 72% 30.04 in 6.2 mi NNW 6.9 mph - N/A   Overcast
11:55 AM 53.6 °F - 44.6 °F 72% 30.04 in 6.2 mi NW 9.2 mph - N/A   Overcast
12:10 PM 53.6 °F - 48.2 °F 82% 30.04 in 6.2 mi NNW 8.1 mph - N/A   Overcast
12:25 PM 53.6 °F - 48.2 °F 82% 30.04 in 6.2 mi North 9.2 mph - N/A   Overcast
12:40 PM 53.6 °F - 48.2 °F 82% 30.04 in 6.2 mi North 9.2 mph - N/A   Overcast
12:44 PM 53.6 °F - 48.2 °F 82% 30.04 in 6.2 mi NNW 6.9 mph - N/A   Mostly Cloudy
12:48 PM 51.8 °F - 48.2 °F 88% 30.04 in 6.2 mi NNW 8.1 mph - N/A   Mostly Cloudy
12:55 PM 51.8 °F - 48.2 °F 88% 30.04 in 6.2 mi North 8.1 mph - N/A Rain Light Rain
1:00 PM 51.8 °F - 48.2 °F 88% 30.04 in 6.2 mi North 6.9 mph - N/A   Mostly Cloudy
1:11 PM 51.8 °F - 48.2 °F 88% 30.04 in 6.2 mi North 9.2 mph - N/A Rain Light Rain
1:16 PM 51.8 °F - 48.2 °F 88% 30.04 in 6.2 mi North 10.4 mph - N/A   Overcast
1:25 PM 53.6 °F - 46.4 °F 77% 30.01 in 6.2 mi North 10.4 mph - N/A   Overcast
1:55 PM 53.6 °F - 44.6 °F 72% 30.01 in 6.2 mi North 12.7 mph - N/A   Overcast
1:57 PM 53.6 °F - 44.6 °F 72% 30.01 in 6.2 mi North 12.7 mph - N/A   Overcast
2:00 PM 53 °F - 44 °F 63% 30.01 in 19 mi North 11.2 mph - - Rain Rain
2:04 PM 51.8 °F - 44.6 °F 76% 30.01 in 6.2 mi North 11.5 mph - N/A   Overcast
2:13 PM 53.6 °F - 44.6 °F 72% 30.01 in 6.2 mi North 10.4 mph - N/A   Overcast
2:25 PM 53.6 °F - 44.6 °F 72% 30.01 in 6.2 mi North 12.7 mph - N/A   Overcast
2:55 PM 51.8 °F - 42.8 °F 71% 30.01 in 6.2 mi North 11.5 mph - N/A   Overcast
2:59 PM 51.8 °F - 42.8 °F 71% 30.01 in 6.2 mi North 11.5 mph - N/A   Overcast
3:25 PM 51.8 °F - 41.0 °F 67% 30.01 in 6.2 mi North 11.5 mph - N/A   Overcast
3:55 PM 51.8 °F - 42.8 °F 71% 30.01 in 6.2 mi NNW 9.2 mph - N/A   Mostly Cloudy
4:25 PM 51.8 °F - 42.8 °F 71% 30.01 in 6.2 mi North 10.4 mph - N/A   Overcast
4:55 PM 51.8 °F - 42.8 °F 71% 30.01 in 6.2 mi North 8.1 mph - N/A   Mostly Cloudy
5:00 PM 51 °F - 42 °F 64% 30.01 in 28 mi North 8.9 mph - -   Overcast
5:06 PM 50.0 °F - 42.8 °F 76% 30.01 in 6.2 mi North 10.4 mph - N/A Rain Light Rain
5:07 PM 50.0 °F - 42.8 °F 76% 30.01 in 6.2 mi North 11.5 mph - N/A Rain Light Rain
5:19 PM 50.0 °F - 44.6 °F 82% 30.01 in 6.2 mi North 9.2 mph - N/A   Overcast
5:25 PM 50.0 °F - 44.6 °F 82% 30.01 in 6.2 mi North 9.2 mph - N/A   Overcast
5:27 PM 50.0 °F - 44.6 °F 82% 30.01 in 6.2 mi North 10.4 mph - N/A   Overcast
5:34 PM 50.0 °F - 42.8 °F 76% 30.01 in 6.2 mi North 13.8 mph - N/A   Overcast
5:55 PM 50.0 °F - 44.6 °F 82% 30.01 in 6.2 mi North 6.9 mph - N/A   Mostly Cloudy
5:57 PM 50.0 °F - 44.6 °F 82% 30.01 in 6.2 mi NNW 6.9 mph - N/A Rain Light Rain
6:05 PM 50.0 °F - 44.6 °F 82% 30.01 in 6.2 mi NNW 8.1 mph - N/A   Mostly Cloudy
6:09 PM 50.0 °F - 44.6 °F 82% 30.01 in 6.2 mi NNW 6.9 mph - N/A   Overcast
6:13 PM 50.0 °F - 44.6 °F 82% 30.01 in 6.2 mi NNW 6.9 mph - N/A   Overcast
6:25 PM 50.0 °F - 42.8 °F 76% 29.98 in 6.2 mi North 9.2 mph - N/A   Overcast
6:55 PM 50.0 °F - 41.0 °F 71% 29.98 in 6.2 mi North 9.2 mph - N/A   Overcast
7:00 PM 50.0 °F - 41.0 °F 71% 29.98 in 6.2 mi North 9.2 mph - N/A   Overcast
7:25 PM 50.0 °F - 41.0 °F 71% 29.98 in 6.2 mi North 10.4 mph - N/A   Overcast
7:55 PM 48.2 °F - 39.2 °F 71% 30.01 in 6.2 mi North 8.1 mph - N/A   Unknown
7:58 PM 48.2 °F - 39.2 °F 71% 30.01 in 6.2 mi North 6.9 mph - N/A   Unknown
8:00 PM 48 °F - 40 °F 65% 30.01 in 19 mi North 6.7 mph - -   Partly Cloudy
8:25 PM 48.2 °F - 41.0 °F 76% 30.01 in 6.2 mi North 9.2 mph - N/A   Partly Cloudy
8:55 PM 48.2 °F - 39.2 °F 71% 30.01 in 6.2 mi North 8.1 mph - N/A   Partly Cloudy
9:25 PM 46.4 °F 42.9 °F 39.2 °F 76% 30.01 in 6.2 mi North 6.9 mph - N/A   Unknown
9:46 PM 48.2 °F - 39.2 °F 71% 30.01 in 6.2 mi North 6.9 mph - N/A   Unknown
9:55 PM 46.4 °F 43.5 °F 39.2 °F 76% 30.01 in 6.2 mi North 5.8 mph - N/A   Unknown
10:25 PM 48.2 °F - 39.2 °F 71% 30.01 in 6.2 mi North 4.6 mph - N/A   Scattered Clouds
10:55 PM 48.2 °F - 41.0 °F 76% 30.01 in 6.2 mi North 6.9 mph - N/A   Mostly Cloudy
11:00 PM 48 °F - 41 °F 69% 30.02 in 18 mi NNW 6.7 mph - -   Overcast
11:25 PM 48.2 °F - 42.8 °F 82% 30.01 in 6.2 mi North 8.1 mph - N/A   Overcast
11:31 PM 48.2 °F - 42.8 °F 82% 30.01 in 6.2 mi North 10.4 mph - N/A Rain Light Rain
11:35 PM 48.2 °F - 44.6 °F 87% 30.01 in 6.2 mi North 11.5 mph - N/A Rain Light Rain Showers
11:55 PM 46.4 °F 41.1 °F 42.8 °F 87% 30.01 in 6.2 mi North 11.5 mph 24.2 mph N/A Rain Light Rain